TimeEST,TemperatureF,Dew PointF,Humidity,Sea Level PressureIn,VisibilityMPH,Wind Direction,Wind SpeedMPH,Gust SpeedMPH,PrecipitationIn,Events,Conditions,WindDirDegrees,DateUTC
12:15 AM,57.2,57.2,100,29.93,10.0,NNE,3.5,-,N/A,,Mostly Cloudy,30,2013-02-08 05:15:00
12:53 AM,57.0,55.0,93,29.96,9.0,Calm,Calm,-,N/A,,Scattered Clouds,0,2013-02-08 05:53:00
1:11 AM,55.4,53.6,94,29.93,1.8,Calm,Calm,-,N/A,,Clear,0,2013-02-08 06:11:00
1:20 AM,55.4,55.4,100,29.93,0.8,Calm,Calm,-,N/A,,Mist,0,2013-02-08 06:20:00
1:53 AM,55.0,53.1,93,29.98,0.2,Calm,Calm,-,N/A,Fog,Fog,0,2013-02-08 06:53:00
2:09 AM,53.6,51.8,94,29.95,0.5,Calm,Calm,-,N/A,Fog,Fog,0,2013-02-08 07:09:00
2:17 AM,53.6,51.8,94,29.95,0.2,NW,3.5,-,N/A,Fog,Fog,320,2013-02-08 07:17:00
2:34 AM,53.6,51.8,94,29.94,0.5,Calm,Calm,-,N/A,Fog,Fog,0,2013-02-08 07:34:00
2:42 AM,53.6,51.8,94,29.94,0.2,Calm,Calm,-,N/A,Fog,Fog,0,2013-02-08 07:42:00
2:51 AM,53.6,51.8,94,29.94,0.5,Calm,Calm,-,N/A,Fog,Fog,0,2013-02-08 07:51:00
2:53 AM,53.1,51.1,93,29.97,0.8,Calm,Calm,-,N/A,,Overcast,0,2013-02-08 07:53:00
3:13 AM,53.6,51.8,94,29.94,0.2,Calm,Calm,-,N/A,Fog,Fog,0,2013-02-08 08:13:00
3:22 AM,53.6,51.8,94,29.94,0.5,Calm,Calm,-,N/A,Fog,Fog,0,2013-02-08 08:22:00
3:53 AM,53.1,52.0,96,29.98,1.0,Calm,Calm,-,N/A,,Overcast,0,2013-02-08 08:53:00
4:00 AM,53.6,51.8,94,29.94,1.0,Calm,Calm,-,N/A,,Mist,0,2013-02-08 09:00:00
4:08 AM,53.6,51.8,94,29.94,0.5,Calm,Calm,-,N/A,Fog,Fog,0,2013-02-08 09:08:00
4:16 AM,53.6,53.6,100,29.95,0.2,Calm,Calm,-,N/A,Fog,Fog,0,2013-02-08 09:16:00
4:53 AM,55.0,53.1,93,29.99,0.2,Calm,Calm,-,N/A,Fog,Fog,0,2013-02-08 09:53:00
5:48 AM,53.6,53.6,100,29.97,0.2,Calm,Calm,-,N/A,Fog,Fog,0,2013-02-08 10:48:00
5:53 AM,53.1,53.1,100,30.00,0.5,Calm,Calm,-,N/A,Fog,Fog,0,2013-02-08 10:53:00
6:01 AM,53.6,51.8,94,29.97,0.5,Calm,Calm,-,N/A,Fog,Fog,0,2013-02-08 11:01:00
6:10 AM,53.6,51.8,94,29.97,2.0,Calm,Calm,-,N/A,,Overcast,0,2013-02-08 11:10:00
6:18 AM,53.6,51.8,94,29.97,4.0,Calm,Calm,-,N/A,,Overcast,0,2013-02-08 11:18:00
6:28 AM,53.6,51.8,94,29.97,9.0,Calm,Calm,-,N/A,,Overcast,0,2013-02-08 11:28:00
6:45 AM,53.6,51.8,94,29.99,3.0,Calm,Calm,-,N/A,,Overcast,0,2013-02-08 11:45:00
6:47 AM,53.6,51.8,94,29.99,1.8,Calm,Calm,-,N/A,,Overcast,0,2013-02-08 11:47:00
6:53 AM,53.1,52.0,96,30.03,1.0,Calm,Calm,-,N/A,,Overcast,0,2013-02-08 11:53:00
7:21 AM,53.6,51.8,94,30.00,1.0,Calm,Calm,-,N/A,,Overcast,0,2013-02-08 12:21:00
7:41 AM,53.6,51.8,94,30.02,3.0,Calm,Calm,-,N/A,,Overcast,0,2013-02-08 12:41:00
7:53 AM,53.1,52.0,96,30.05,9.0,North,-9999.0,-,N/A,,Overcast,0,2013-02-08 12:53:00
7:59 AM,53.6,51.8,94,30.02,1.5,North,-9999.0,-,N/A,,Overcast,0,2013-02-08 12:59:00
8:07 AM,53.6,53.6,100,30.02,0.8,Calm,Calm,-,N/A,,Overcast,0,2013-02-08 13:07:00
8:14 AM,53.6,53.6,100,30.02,2.0,Calm,Calm,-,N/A,,Overcast,0,2013-02-08 13:14:00
8:24 AM,53.6,53.6,100,30.03,5.0,Calm,Calm,-,N/A,,Overcast,0,2013-02-08 13:24:00
8:53 AM,55.0,54.0,96,30.07,10.0,Calm,Calm,-,N/A,,Overcast,0,2013-02-08 13:53:00
9:13 AM,55.4,55.4,100,30.04,10.0,Calm,Calm,-,N/A,,Overcast,0,2013-02-08 14:13:00
9:53 AM,57.0,55.9,96,30.08,10.0,Calm,Calm,-,N/A,,Overcast,0,2013-02-08 14:53:00
10:10 AM,57.2,55.4,94,30.05,10.0,Calm,Calm,-,N/A,,Overcast,0,2013-02-08 15:10:00
10:50 AM,60.8,55.4,82,30.06,10.0,Calm,Calm,-,N/A,,Mostly Cloudy,0,2013-02-08 15:50:00
10:53 AM,62.1,55.9,80,30.09,10.0,Calm,Calm,-,N/A,,Mostly Cloudy,0,2013-02-08 15:53:00
11:18 AM,62.6,55.4,77,30.06,10.0,Calm,Calm,-,N/A,,Mostly Cloudy,0,2013-02-08 16:18:00
11:53 AM,64.9,55.9,73,30.09,10.0,West,4.6,-,N/A,,Mostly Cloudy,270,2013-02-08 16:53:00
12:53 PM,68.0,55.0,63,30.07,10.0,Calm,Calm,-,N/A,,Partly Cloudy,0,2013-02-08 17:53:00
1:53 PM,69.1,57.9,68,30.06,10.0,South,9.2,-,N/A,,Overcast,170,2013-02-08 18:53:00
2:53 PM,66.9,57.9,73,30.05,10.0,SW,8.1,-,N/A,,Overcast,230,2013-02-08 19:53:00
3:53 PM,66.9,57.9,73,30.04,10.0,SW,12.7,-,N/A,,Overcast,230,2013-02-08 20:53:00
4:53 PM,66.9,57.9,73,30.06,10.0,WSW,9.2,-,N/A,,Mostly Cloudy,250,2013-02-08 21:53:00
5:53 PM,66.0,57.9,75,30.06,10.0,SW,4.6,-,N/A,,Mostly Cloudy,230,2013-02-08 22:53:00
6:53 PM,63.0,57.9,84,30.08,10.0,Calm,Calm,-,N/A,,Clear,0,2013-02-08 23:53:00
7:53 PM,60.1,57.9,93,30.10,10.0,Calm,Calm,-,N/A,,Clear,0,2013-02-09 00:53:00
8:53 PM,57.9,55.9,93,30.12,10.0,NW,5.8,-,N/A,,Scattered Clouds,310,2013-02-09 01:53:00
9:53 PM,57.0,54.0,89,30.14,10.0,NNW,8.1,-,N/A,,Clear,340,2013-02-09 02:53:00
10:53 PM,57.0,53.1,87,30.16,10.0,North,8.1,-,N/A,,Clear,350,2013-02-09 03:53:00
11:53 PM,55.0,53.1,93,30.17,10.0,NNW,8.1,-,N/A,,Clear,340,2013-02-09 04:53:00